User: anonymous
Location: Brno
(49.2000°N, 16.6330°E)
Time: 19:44:35
(UTC+02:00)
Language:

RESURS DK-1 - Orbit

View from above orbital plane
View from above orbital plane
View from above satellite
View from above satellite

Ground track
Ground track

The orbit data is extracted from the following two-line orbital elements,

1 29228U 06021A   14205.31870767  .00000128  00000-0  17630-4 0   671
2 29228 069.9375 269.8891 0005029 198.6365 252.0037 15.00730599449141
Epoch (UTC): 24 July 2014 07:38:56
Eccentricity: 0.0005029
inclination: 69.9375°
perigee height: 561 km
apogee height: 568 km
right ascension of ascending node: 269.8891°
argument of perigee: 198.6365°
revolutions per day: 15.00730599
mean anomaly at epoch: 252.0037°
orbit number at epoch: 44914

The dashed part of the orbit path shows where the satellite is in the earth's shadow,  

DLR